Location: *
(49.5667°N, 1.3667°W)
Time: 23:23:17
(UTC+00:00)

SJ-6B - Pass Details

Date: 20 September 2019
Orbit: 509 x 583 km, 97.6° (Epoch: 15 October)

Event Time Altitude Azimuth Distance (km) Brightness Sun altitude
Exits shadow 19:56:52 11° 179° (S) 1,829 5.2 -17.8°
Maximum altitude 20:00:46 59° 259° (W) 673 3.4 -18.4°
Drops below altitude 10° 20:04:49 10° 340° (NNW) 1,884 6.2 -19.0°
Sets 20:06:59 0° 344° (NNW) 2,776 7.0 -19.3°
